Location: Festilli
(46.4000°N, 11.6667°E)
Time: 15:02:03
(UTC+00:00)

Meteor 1-11 Rocket - Pass Details

Date: 03 March 2021
Orbit: 831 x 916 km, 81.2° (Epoch: 19 April)

Event Time Altitude Azimuth Distance (km) Brightness Sun altitude
Rises 19:23:17 0° 194° (SSW) 3,466 6.9 -24.8°
Reaches altitude 10° 19:25:45 10° 196° (SSW) 2,519 6.1 -25.2°
Maximum altitude 19:31:28 75° 281° (WNW) 892 3.8 -26.2°
Drops below altitude 10° 19:37:06 10° 8° (N) 2,482 6.3 -27.1°
Sets 19:39:31 0° 10° (N) 3,412 7.0 -27.5°
